CAPE
12 0 0 0 0 0 0 0 0 0 0 0 0 0 0 0 0 0 0 0 0 0 0 0 0 0 0 0 0 0 0 0 0 0 0 0 0 0 0 0 0 0 0 0 0 0 0
4 1 0 0 0 1 1 0 0 0 0 0 0 0 0 0 0 0 0 0 0 0 0 0 0 0 0 0 0 0 0 0 0 0 0 0 0 0 0 0 0 0 0 0 0 0 0
26 1 1 0 0 1 0 0 0 0 0 0 0 0 0 0 0 0 0 0 0 0 0 0 0 0 0 0 0 0 0 0 0 0 0 0 0 0 0 0 0 0 0 0 0 0 0
14 20 4 0 0 0 0 0 0 0 0 0 0 0 0 0 0 0 0 0 0 0 0 0 0 0 0 0 0 0 0 0 0 0 0 0 0 0 0 0 0 0 0 0 0 0 0
18 33 5 3 0 0 0 0 0 0 0 0 0 0 0 0 0 0 0 0 0 0 0 0 0 0 0 0 0 0 0 0 0 0 0 0 0 0 0 0 0 0 0 0 0 0 0
17 21 16 2 0 0 0 0 0 0 0 0 0 0 0 0 0 0 0 0 0 0 2 2 7 0 0 0 0 0 0 0 0 0 0 0 0 0 0 0 0 0 0 0 0 0 0
15 14 23 16 10 0 0 0 0 0 0 0 0 0 0 0 0 0 0 9 3 5 16 0 0 0 0 0 0 0 0 0 0 0 0 0 0 0 0 0 0 0 0 0 0 0 0
32 18 17 14 2 1 1 1 0 0 0 0 0 0 0 0 0 0 6 0 0 0 0 0 0 0 0 0 0 0 0 0 0 0 0 0 0 0 0 0 0 0 0 0 0 0 0
45 29 22 24 4 1 0 0 0 0 0 0 0 0 0 0 0 1 23 0 2 0 0 0 0 0 0 0 0 0 0 0 0 0 0 0 0 0 0 0 0 0 0 0 0 0 0
77 62 4 4 9 18 0 0 0 0 0 0 0 0 0 0 0 15 26 4 12 2 33 1 7 0 0 0 0 0 0 0 0 0 0 0 0 0 0 0 0 0 0 0 0 0 0
97 48 4 1 3 1 0 0 0 0 0 0 0 0 0 0 7 9 2 5 0 0 2 0 7 2 6 0 0 0 0 0 0 0 0 0 0 0 0 0 0 0 0 0 0 0 0
84 56 50 10 0 0 0 0 0 0 0 0 0 0 0 0 2 11 0 0 0 3 5 0 5 8 8 7 1 3 0 0 0 7 4 0 0 0 0 0 0 0 0 0 0 0 0
46 26 30 0 0 8 0 0 0 0 0 0 0 0 0 1 0 1 2 1 0 4 0 0 2 8 4 5 8 4 5 1 0 4 0 0 0 0 0 0 0 0 1 7 7 7 0
82 31 25 2 0 0 0 0 0 0 0 0 0 0 0 0 1 2 0 0 1 0 0 0 0 3 2 1 1 0 1 0 0 0 0 0 0 0 0 0 0 0 3 17 1 0 0
18 16 1 0 1 0 1 0 0 0 0 0 0 2 1 2 2 5 10 0 4 6 1 0 0 0 0 0 1 4 3 1 0 0 0 0 0 0 0 0 0 1 2 0 24 19 23
6 8 6 4 2 3 2 0 0 0 0 0 0 0 1 1 2 14 27 0 2 0 0 0 0 0 0 0 0 3 2 0 0 0 0 0 0 0 0 0 0 0 0 2 19 34 24
14 12 14 13 14 8 4 2 0 1 0 0 0 0 2 1 0 2 0 0 0 0 0 0 0 3 5 7 0 0 0 0 0 0 0 2 0 0 0 0 10 4 10 18 39 45 45
27 11 9 4 6 4 2 1 1 1 1 4 0 1 3 2 6 1 0 2 1 0 0 0 0 1 2 3 0 0 0 0 0 0 14 18 29 1 0 10 27 9 64 81 176 27 57
18 29 26 16 8 6 4 2 0 0 0 1 0 0 1 1 0 0 1 0 4 10 1 5 8 0 0 0 1 2 0 0 0 0 17 18 53 10 1 11 30 8 0 2 90 149 67
3 3 4 5 10 6 8 6 2 0 0 0 0 0 0 0 0 0 1 2 2 0 0 0 2 0 1 3 0 0 3 0 0 0 0 1 20 20 2 3 11 26 3 8 46 147 72
0 0 1 1 0 0 0 2 1 0 0 0 1 1 1 1 1 0 0 0 1 1 2 0 1 0 3 3 12 11 5 0 0 0 0 6 38 46 11 0 6 53 20 0 23 51 146
0 0 0 0 0 0 0 0 0 0 0 1 0 6 5 8 4 1 0 0 1 5 2 2 1 3 2 2 8 7 1 0 4 1 25 3 6 2 49 12 38 93 3 0 18 11 17
1 0 0 0 0 0 0 0 0 0 0 2 9 5 9 8 5 13 7 11 14 5 4 7 7 11 13 6 5 6 2 4 7 6 10 18 34 20 16 12 27 35 1 2 12 38 38
0 4 0 0 0 0 0 0 0 0 0 4 5 7 22 16 14 16 10 4 11 13 11 12 13 17 15 10 5 3 3 6 8 7 5 17 9 27 32 27 89 14 12 50 50 22 81
8 1 0 3 0 0 0 0 0 0 0 0 0 3 10 19 11 13 26 18 20 16 17 15 13 7 6 4 0 1 1 1 0 0 5 9 25 44 58 56 40 23 29 0 8 35 0
0 0 0 6 0 1 0 0 0 0 0 0 0 0 0 14 16 3 25 24 21 11 15 17 16 8 3 3 1 3 4 3 9 7 1 8 26 30 67 54 48 42 2 0 0 47 23
0 2 4 0 8 0 1 0 0 0 0 0 0 0 2 7 0 4 20 18 4 8 15 19 30 29 10 10 4 0 0 0 0 0 13 18 17 21 43 74 40 0 0 0 14 0 5
0 0 1 9 11 6 1 12 0 0 0 0 0 0 13 6 3 0 0 10 3 9 14 25 16 23 32 29 20 10 1 0 0 0 0 0 15 34 40 45 59 0 0 0 0 0 1
5 0 0 1 1 6 19 6 22 0 0 0 5 0 0 28 7 0 0 0 0 1 3 15 2 14 28 42 33 13 12 6 0 0 0 0 0 0 1 13 2 0 0 0 0 0 0
CIN
-0 -0 -0 -0 -0 -0 -0 -0 -0 -0 -0 -0 -0 -0 -0 -0 -0 -0 -0 -0 -0 -0 -0 -0 -0 -0 -0 -0 -0 -0 -0 -0 -0 -0 -0 -0 -0 -0 -0 -0 -0 -0 -0 -0 -0 -0 -0
-0 -0 -1 -0 -0 -0 -0 -0 -0 -0 -0 -0 -0 -0 -0 -0 -0 -0 -0 -0 -0 -0 -0 -0 -0 -0 -0 -0 -0 -0 -0 -0 -0 -0 -0 -0 -0 -0 -0 -0 -0 -0 -0 -0 -0 -0 -0
-0 -0 -0 -0 -0 -0 -0 -0 -0 -0 -0 -0 -0 -0 -0 -0 -0 -0 -0 -0 -0 -0 -0 -0 -0 -0 -0 -0 -0 -0 -0 -0 -0 -0 -0 -0 -0 -0 -0 -0 -0 -0 -0 -0 -0 -0 -0
-0 -0 -0 -0 -0 -0 -0 -0 -0 -0 -0 -0 -0 -0 -0 -0 -0 -0 -0 -0 -0 -0 -0 -0 -0 -0 -0 -0 -0 -0 -0 -0 -0 -0 -0 -0 -0 -0 -0 -0 -0 -0 -0 -0 -0 -0 -0
-0 -0 -0 -0 -0 -0 -0 -0 -0 -0 -0 -0 -0 -0 -0 -0 -0 -0 -0 -0 -0 -0 -0 -0 -0 -0 -0 -0 -0 -0 -0 -0 -0 -0 -0 -0 -0 -0 -0 -0 -0 -0 -0 -0 -0 -0 -0
-0 -0 -0 -0 -0 -0 -0 -0 -0 -0 -0 -0 -0 -0 -0 -0 -0 -0 -0 -0 -0 -0 -0 -0 -0 -0 -0 -0 -0 -0 -0 -0 -0 -0 -0 -0 -0 -0 -0 -0 -0 -0 -0 -0 -0 -0 -0
-0 -0 -0 -0 -0 -0 -0 -0 -0 -0 -0 -0 -0 -0 -0 -0 -0 -0 -0 -0 -0 -0 -0 -0 -0 -0 -0 -0 -0 -0 -0 -0 -0 -0 -0 -0 -0 -0 -0 -0 -0 -0 -0 -0 -0 -0 -0
-0 -0 -0 -0 -0 -0 -0 -0 -0 -0 -0 -0 -0 -0 -0 -0 -0 -0 -0 -0 -0 -0 -0 -0 -0 -0 -0 -0 -0 -0 -0 -0 -0 -0 -0 -0 -0 -0 -0 -0 -0 -0 -0 -0 -0 -0 -0
-0 -8 -0 -0 -0 -0 -0 -0 -0 -0 -0 -0 -0 -0 -0 -0 -0 -0 -0 -0 -0 -0 -0 -0 -0 -0 -0 -0 -0 -0 -0 -0 -0 -0 -0 -0 -0 -0 -0 -0 -0 -0 -0 -0 -0 -0 -0
-0 -0 -0 -0 -0 -19 -0 -0 -0 -0 -0 -0 -0 -0 -0 -0 -0 -0 -0 -0 -0 -5 -0 -0 -0 -0 -0 -0 -0 -0 -0 -0 -0 -0 -0 -0 -0 -0 -0 -0 -0 -0 -0 -0 -0 -0 -0
-1 -0 -39 -0 -0 -35 -0 -0 -0 -0 -0 -0 -0 -0 -0 -0 -1 -0 -0 -7 -0 -0 -3 -0 -0 -0 -0 -0 -0 -0 -0 -0 -0 -0 -0 -0 -0 -0 -0 -0 -0 -0 -0 -0 -0 -0 -0
-6 -6 -3 -39 -0 -0 -0 -0 -0 -0 -0 -0 -0 -0 -0 -0 -0 -0 -0 -3 -0 -0 -0 -0 -0 -0 -0 -0 -0 -0 -0 -0 -0 -0 -0 -0 -0 -0 -0 -0 -0 -0 -0 -0 -0 -0 -0
-11 -23 -26 -0 -0 -101 -0 -0 -0 -0 -0 -0 -0 -0 -0 -0 -0 -0 -0 -0 -0 -0 -0 -0 -0 -0 -0 -0 -0 -0 -0 -0 -0 -0 -0 -0 -0 -0 -0 -0 -0 -0 -0 -0 -0 -0 -0
-5 -22 -22 -73 -0 -0 -0 -0 -0 -0 -0 -0 -0 -0 -0 -0 -0 -0 -0 -0 -0 -0 -0 -0 -0 -0 -0 -0 -0 -0 -0 -0 -0 -0 -0 -0 -0 -0 -0 -0 -0 -0 -0 -0 -0 -0 -0
-16 -50 -0 -0 -0 -0 -0 -0 -0 -0 -0 -0 -0 -0 -0 -0 -0 -5 -1 -0 -0 -0 -0 -0 -0 -0 -0 -0 -0 -0 -0 -0 -0 -0 -0 -0 -0 -0 -0 -0 -0 -0 -0 -0 -0 -0 -0
-0 -0 -0 -0 -0 -0 -0 -0 -0 -0 -0 -0 -0 -0 -0 -0 -0 -3 -0 -0 -0 -0 -0 -0 -0 -0 -0 -0 -0 -11 -0 -0 -0 -0 -0 -0 -0 -0 -0 -0 -0 -0 -0 -0 -1 -0 -0
-0 -0 -0 -0 -0 -0 -0 -0 -0 -0 -0 -0 -0 -0 -0 -0 -0 -3 -0 -0 -0 -0 -0 -0 -0 -0 -0 -0 -0 -0 -0 -0 -0 -0 -0 -25 -0 -0 -0 -0 -0 -0 -0 -0 -0 -0 -0
-0 -0 -0 -0 -0 -0 -0 -0 -0 -0 -39 -6 -0 -0 -0 -0 -0 -0 -0 -0 -1 -0 -0 -0 -0 -0 -0 -0 -0 -0 -0 -0 -0 -0 -14 -13 -2 -0 -0 -0 -0 -0 -0 -0 -0 -0 -0
-0 -0 -0 -0 -0 -0 -0 -0 -0 -0 -0 -0 -0 -0 -0 -0 -0 -0 -0 -0 -0 -0 -0 -0 -0 -0 -0 -0 -0 -0 -0 -0 -0 -0 -5 -12 -1 -0 -0 -0 -0 -0 -0 -0 -0 -0 -0
-0 -0 -0 -0 -0 -0 -0 -0 -0 -0 -0 -0 -0 -0 -0 -0 -0 -0 -0 -0 -0 -0 -0 -0 -0 -0 -0 -2 -0 -0 -0 -0 -0 -0 -0 -4 -0 -0 -0 -2 -15 -9 -2 -0 -0 -0 -0
-0 -0 -0 -0 -0 -0 -0 -0 -0 -0 -0 -0 -0 -0 -0 -0 -0 -0 -0 -0 -0 -0 -0 -0 -0 -0 -0 -0 -0 -0 -0 -0 -0 -0 -0 -21 -0 -0 -0 -0 -2 -0 -0 -0 -0 -0 -0
-0 -0 -0 -0 -0 -0 -0 -0 -0 -0 -0 -0 -0 -0 -0 -0 -0 -0 -0 -0 -0 -0 -0 -0 -0 -0 -0 -0 -0 -0 -0 -0 -0 -0 -0 -0 -0 -2 -0 -8 -1 -0 -0 -0 -0 -0 -0
-0 -0 -0 -0 -0 -0 -0 -0 -0 -0 -0 -0 -0 -0 -0 -0 -0 -0 -0 -0 -0 -0 -0 -0 -0 -0 -0 -0 -0 -0 -0 -0 -0 -0 -0 -0 -0 -0 -12 -8 -0 -0 -0 -0 -8 -0 -0
-0 -0 -0 -0 -0 -0 -0 -0 -0 -0 -0 -0 -0 -0 -0 -0 -0 -0 -0 -0 -0 -0 -0 -0 -0 -0 -0 -0 -0 -0 -0 -0 -0 -0 -0 -0 -0 -0 -0 -0 -0 -0 -0 -0 -0 -0 -0
-0 -0 -0 -0 -0 -0 -0 -0 -0 -0 -0 -0 -0 -0 -0 -0 -0 -0 -0 -0 -0 -0 -0 -0 -0 -0 -0 -0 -0 -0 -0 -0 -0 -0 -0 -0 -0 -0 -0 -0 -0 -0 -3 -3 -1 -0 -0
-0 -0 -0 -0 -0 -0 -0 -0 -0 -0 -0 -0 -0 -0 -0 -0 -0 -0 -0 -0 -0 -0 -0 -0 -0 -0 -0 -0 -0 -0 -0 -1 -0 -0 -0 -0 -0 -0 -0 -0 -0 -20 -0 -0 -0 -0 -0
-0 -0 -0 -0 -0 -0 -0 -0 -0 -0 -0 -0 -0 -0 -0 -0 -0 -0 -0 -0 -0 -0 -0 -0 -0 -0 -0 -0 -0 -0 -0 -0 -0 -0 -0 -0 -0 -0 -5 -0 -1 -2 -0 -0 -0 -0 -0
-0 -0 -0 -0 -1 -0 -2 -0 -0 -0 -0 -0 -0 -0 -0 -0 -0 -0 -0 -0 -0 -0 -0 -0 -0 -0 -0 -0 -0 -0 -0 -0 -0 -0 -0 -0 -0 -0 -0 -0 -0 -0 -0 -0 -0 -1 -0
-0 -0 -0 -0 -0 -1 -0 -3 -0 -0 -0 -0 -0 -0 -0 -0 -0 -0 -0 -0 -0 -0 -0 -0 -1 -0 -0 -0 -0 -0 -0 -0 -0 -0 -0 -0 -0 -0 -0 -0 -8 -0 -0 -0 -0 -0 -0
Wind_Speed
25 31 29 29 27 26 26 24 23 21 20 19 17 16 15 14 13 11 9 8 5 4 2 5 8 12 7 5 8 5 2 3 5 4 5 6 7 6 10 5 6 14 14 11 12 14 15
17 28 29 28 28 27 26 25 23 22 21 20 19 17 15 14 13 12 11 8 6 3 1 3 6 12 4 11 3 2 2 2 1 3 2 4 1 2 6 7 10 6 12 16 15 18 13
23 15 29 29 28 27 27 25 24 23 22 20 19 17 16 15 13 12 10 8 6 4 2 0 4 5 7 15 0 3 4 4 3 4 5 3 4 8 1 6 6 10 15 18 19 15 16
24 18 17 29 29 28 27 25 25 24 23 22 20 18 16 15 13 11 10 9 7 5 3 1 2 4 10 4 6 12 11 12 10 10 10 10 9 9 9 4 7 8 14 14 4 4 7
26 23 19 26 29 28 27 27 26 26 24 23 21 20 18 15 13 11 9 9 8 6 4 4 4 4 10 1 6 3 6 3 7 5 6 4 6 10 5 11 12 10 16 20 18 8 13
28 24 18 18 29 30 29 29 27 26 25 23 23 21 19 17 14 13 11 7 8 9 4 3 4 7 8 3 2 5 6 8 4 10 7 6 8 10 11 14 17 19 16 15 11 5 12
27 25 17 21 24 30 32 30 29 27 25 24 23 22 20 19 16 16 16 9 6 7 8 12 7 6 3 1 3 8 6 8 8 7 8 7 11 16 21 21 24 24 21 21 18 13 21
24 25 16 19 18 30 30 30 29 27 27 25 24 23 21 20 20 22 14 9 9 6 8 22 22 20 12 4 4 9 9 9 9 15 10 7 22 20 16 14 20 22 23 25 21 18 14
25 25 21 22 21 25 29 30 29 28 27 27 26 25 22 21 20 14 18 20 4 1 8 8 17 15 12 16 14 19 11 8 14 19 19 23 13 6 13 15 16 21 19 22 23 20 21
25 25 24 22 23 25 24 26 27 29 29 27 26 26 24 24 13 10 18 16 6 4 6 7 10 9 13 11 12 21 20 15 16 18 19 20 18 24 16 17 14 16 11 14 16 14 14
23 22 22 24 24 19 22 22 23 26 28 29 28 26 29 29 11 14 10 13 8 6 7 5 9 9 12 15 5 7 8 19 26 18 12 9 9 11 20 24 18 16 15 13 13 16 18
21 19 17 20 15 13 25 25 26 26 26 26 26 27 31 13 5 12 18 16 6 5 11 10 9 10 11 11 5 9 6 6 6 13 19 20 6 5 12 8 15 5 8 10 9 9 11
17 17 15 14 18 13 5 23 25 25 25 27 26 27 24 10 8 18 19 10 5 7 6 10 10 11 14 12 10 11 14 13 9 9 11 12 23 19 13 9 8 13 10 5 8 6 9
16 18 17 15 17 15 11 8 17 21 22 24 25 26 10 4 14 19 7 5 6 11 12 6 8 12 10 14 9 12 11 10 12 9 4 7 7 18 19 22 9 18 17 7 7 10 9
17 22 20 20 18 17 10 5 9 17 17 19 24 7 6 8 16 11 8 6 10 8 15 10 13 12 10 11 4 12 14 11 8 17 9 6 6 7 9 14 16 9 18 18 16 16 12
26 24 26 24 23 20 16 7 2 10 14 21 4 4 2 3 16 11 12 8 8 8 4 14 13 11 14 16 14 13 13 7 9 14 14 1 7 8 7 8 14 13 2 7 6 6 11
24 27 25 23 18 21 19 17 4 7 12 12 4 5 2 5 5 8 5 8 9 8 5 9 15 11 12 11 13 12 7 6 6 11 13 7 7 5 8 11 12 12 17 9 7 13 12
22 24 25 22 22 25 20 23 15 9 13 9 3 3 2 3 4 1 3 10 4 12 8 5 4 11 13 11 12 13 12 7 6 8 9 10 5 12 19 13 12 16 19 21 14 16 11
27 27 22 23 23 19 19 17 17 17 12 5 2 4 1 2 5 3 0 4 6 8 15 10 14 12 9 10 7 14 12 6 7 10 12 10 7 11 13 17 16 15 21 20 21 21 26
25 24 24 24 23 21 22 18 19 18 9 3 4 3 3 2 1 7 6 2 7 3 3 5 2 7 12 16 15 8 12 6 7 7 2 2 12 14 16 12 1 7 14 17 19 17 20
21 22 21 20 20 19 19 17 17 16 12 2 1 2 1 5 6 3 10 11 5 7 2 1 1 9 13 7 17 16 18 8 6 6 6 7 15 20 24 26 26 24 22 23 22 23 23
18 18 17 18 18 18 17 16 13 12 5 3 3 3 0 2 11 8 10 9 12 5 7 5 4 5 2 5 2 3 4 4 4 1 6 3 3 11 22 26 23 21 26 29 25 25 20
15 16 16 16 16 15 14 14 13 9 5 2 2 1 1 4 4 6 8 6 9 12 3 3 7 6 6 3 3 6 5 2 3 5 6 5 4 3 7 17 19 17 23 28 29 29 25
12 12 12 12 12 12 12 12 12 11 4 4 1 2 2 4 4 2 10 6 14 8 7 5 6 5 5 10 8 5 1 5 7 8 7 5 3 5 10 14 17 11 17 19 24 23 26
10 8 8 7 6 7 8 9 10 10 8 4 3 1 1 4 5 5 9 7 11 11 6 6 4 7 11 6 3 4 5 5 12 15 16 13 8 5 6 12 18 20 10 7 10 14 14
9 9 7 7 2 1 4 6 8 11 9 3 4 2 2 3 5 7 6 11 7 6 7 6 9 12 9 3 4 6 6 1 5 5 3 9 10 6 5 9 14 1 7 10 8 9 14
7 7 6 6 5 1 2 2 4 7 10 4 4 4 1 2 4 7 9 10 6 8 6 7 8 8 5 3 3 4 5 2 6 5 6 6 5 13 13 12 8 8 11 5 7 3 7
9 9 8 7 7 4 4 3 3 3 5 3 4 4 2 0 5 1 3 8 7 9 9 13 7 3 5 7 5 5 5 6 5 5 4 6 6 7 5 9 16 7 6 5 8 8 12
10 10 10 9 8 6 7 7 6 5 4 1 2 2 3 2 4 3 2 3 4 3 7 11 2 14 6 6 4 3 4 3 5 4 4 6 8 6 7 7 9 15 13 10 11 14 16
Wind_Direction
233 205 205 203 199 200 199 198 197 196 193 193 194 193 194 197 198 200 202 205 215 230 299 336 344 327 316 283 261 120 29 344 291 274 265 231 242 251 254 272 249 246 270 271 262 259 265
242 217 205 203 199 198 199 198 196 195 192 193 195 191 192 196 196 196 197 194 201 204 247 341 355 312 291 274 66 117 35 332 301 272 188 225 295 278 278 260 248 349 284 277 275 267 267
273 248 206 204 200 198 198 197 195 194 193 192 194 191 191 193 195 194 190 186 180 177 193 357 8 330 268 257 248 263 279 276 229 271 278 273 285 247 9 255 280 281 285 277 263 260 269
278 233 250 201 200 198 197 195 194 195 192 191 189 189 188 190 187 192 178 167 160 163 156 140 317 287 261 250 282 274 261 255 237 255 249 272 260 265 248 301 243 265 261 271 87 212 225
255 248 238 229 199 200 195 196 195 193 191 190 188 187 185 185 181 175 159 148 148 151 136 162 247 286 263 4 241 228 204 206 146 152 178 209 218 229 181 238 264 215 275 270 268 232 270
250 260 230 244 210 200 197 196 196 192 190 188 186 182 181 177 173 152 140 148 136 144 159 208 283 269 226 281 178 161 154 165 135 135 137 184 203 220 216 219 242 257 246 253 261 325 271
240 255 226 234 227 201 197 197 193 193 187 187 184 179 179 173 162 142 132 135 190 195 204 209 193 258 144 158 236 206 169 173 162 213 229 207 225 225 239 232 260 284 285 272 280 279 278
218 241 228 243 250 206 197 196 194 190 186 184 183 178 177 168 155 159 179 196 209 12 256 224 246 242 257 316 261 208 180 202 205 238 218 210 244 257 261 257 242 252 267 275 282 276 281
224 221 225 236 234 212 199 197 190 188 188 184 183 176 172 158 149 161 193 205 127 226 267 234 220 236 223 215 235 238 200 219 230 240 231 239 258 61 243 239 240 240 254 276 283 294 288
222 210 219 233 219 212 206 200 192 190 188 185 183 173 162 142 152 169 200 193 135 90 274 226 206 241 190 208 248 226 216 221 221 244 239 259 267 258 246 238 232 246 244 261 276 283 282
218 218 225 223 209 203 197 198 191 193 191 183 184 170 155 163 144 182 164 141 99 60 246 159 149 124 155 189 102 154 207 217 233 214 201 223 239 235 238 242 236 262 266 262 274 280 288
206 202 203 169 156 203 200 194 192 189 186 182 180 165 164 167 154 167 140 130 103 135 236 174 148 173 155 198 191 133 148 211 241 238 230 250 246 276 252 246 236 221 234 234 248 262 260
195 200 199 194 146 163 205 202 190 186 186 181 173 166 173 150 164 144 138 139 127 198 150 168 178 176 190 170 178 179 170 174 165 172 212 231 241 230 223 224 200 210 203 222 227 214 253
207 203 188 162 147 155 173 184 153 160 167 170 154 156 159 166 141 148 139 96 194 209 199 136 162 173 191 159 200 187 175 196 217 228 174 223 200 188 208 225 207 207 211 210 250 239 281
130 131 127 110 104 102 104 119 168 150 151 137 136 147 145 149 155 159 165 189 203 209 193 169 160 185 184 185 180 182 210 217 211 205 226 201 218 167 190 205 218 183 218 231 271 283 273
82 79 90 85 89 90 82 72 160 142 144 139 116 91 138 325 170 174 200 188 220 197 186 185 198 205 192 182 185 197 181 192 207 202 233 234 266 190 173 202 213 219 203 195 219 238 237
77 78 77 77 78 85 73 54 114 178 143 113 97 144 100 318 194 198 183 189 198 200 181 184 226 239 220 181 194 190 198 146 194 187 206 223 229 181 166 204 210 204 233 227 241 236 258
75 76 66 68 60 62 57 50 31 161 149 166 134 116 39 290 171 59 147 169 173 197 184 199 291 249 242 219 207 214 230 235 159 164 186 212 267 255 256 254 253 272 233 223 231 232 240
63 67 76 76 73 72 68 62 51 48 158 127 113 109 310 320 161 150 72 146 193 173 189 186 210 215 193 208 228 227 217 134 168 185 187 172 224 258 247 233 220 237 241 253 248 246 253
67 67 70 72 73 67 61 51 51 42 28 64 115 124 3 61 293 135 141 167 165 80 121 134 212 240 220 233 223 216 221 173 180 202 108 211 236 230 250 265 56 223 245 247 245 251 257
63 68 68 68 69 67 68 60 45 41 16 83 37 182 260 177 205 160 176 156 154 159 77 105 70 218 198 216 233 231 232 158 200 162 185 215 245 247 255 262 263 259 253 246 247 251 255
60 59 61 68 66 62 57 56 64 37 34 68 117 160 260 123 128 117 169 180 174 135 153 176 171 171 157 172 217 169 152 193 198 115 201 165 235 265 257 262 260 258 253 257 251 246 253
56 57 58 58 56 55 58 56 45 56 78 79 195 28 298 131 135 151 172 170 152 124 13 139 158 143 192 182 100 87 58 78 142 180 167 176 192 229 251 258 264 250 239 247 252 249 243
40 45 52 53 54 52 45 44 46 41 79 140 85 110 165 126 162 133 156 147 148 143 138 124 137 131 99 118 110 111 142 263 245 223 227 195 167 252 263 271 250 259 259 249 251 251 250
33 37 36 37 56 58 51 37 33 39 28 96 128 184 68 109 112 121 142 127 126 125 131 144 137 111 143 145 156 159 171 209 222 227 216 229 235 239 256 252 268 279 295 1 343 297 9
18 15 5 5 339 120 86 62 34 22 18 92 82 349 78 129 187 140 151 159 136 138 140 129 116 145 163 172 177 195 210 210 192 167 181 207 223 258 227 254 263 203 11 337 4 252 17
354 355 348 339 317 234 197 110 69 44 27 352 70 11 294 131 144 183 171 181 162 165 146 143 140 162 206 162 173 189 205 204 221 222 186 173 205 227 239 252 266 34 350 301 235 24 329
334 331 334 340 345 220 214 206 168 109 67 328 82 9 315 341 128 199 152 175 171 184 166 139 136 166 173 192 199 175 217 199 241 231 230 233 241 238 251 258 254 354 346 352 312 262 250
318 313 313 311 312 296 234 213 197 179 129 60 148 71 352 34 61 3 1 2 353 59 127 180 59 159 158 188 206 166 184 196 231 247 172 247 233 280 262 291 304 306 296 299 283 287 289